RPLLOTBD

Guest
Details From RPLL - Manille Ninoy Aquino Intl
To OTBD - Doha Intl
Flight Number -
Tags Decoded
Created
Modified
Stats Distance 3,935 nm / 7,287 km
Max Altitude 0 ft / 0 m
Waypoints 2
Social Downloads 8
Likes 0
Share VATSIM

Download

Looking for another format? Having issues loading an existing format? Contact us
Advertisement - Login to hide

Notes

Decoded

Route

RPLL OTBD

ID Type Via Altitude Latitude Longitude Leg Dist Tot Dist Heading (true) Name
O RPLL APT - 0 ft / 0 m 14.52421˚ 121.00346˚ - 0 nm - -
O OTBD APT - 0 ft / 0 m 25.28022˚ 51.55653˚ 3934 nm 3934 nm 292° / 265° -

Altitude Profile

Advertisement - Login to hide

Weather


0- 5 10 15 20 25 30 35+ Temperature / ° C

Clouds and Precipitation
Forecast for 2017-12-16 18:00 UTC. Updated 5 minutes ago

Ground ~20,000 ft ~40,000 ft Winds

RPLL

Details ICAO RPLL (MNL)
Name Ninoy Aquino International Airport
Region Philippines
Timezone Asia/Manila (UTC+8.0)
Stats Elevation 75 ft / 23 m (AMSL)
Location 14.511513° 121.012718°
Runways 2
Magnetic Variation 2.158° W

METAR

RPLL 161500Z 36007KT 320V050 9999 SCT023 OVC100 26/19 Q1009 NOSIG RMK A2980

Decode

TAF

TAF RPLL 161100Z 1612/1718 04012KT 9999 SCT023 BKN100 TX29/1706Z TN23/1621Z TEMPO 1612/1618 35006KT 9000 -SHRA SCT023 OVC090 TEMPO 1618/1624 36008KT 9000 -SHRA SCT023 OVC090 TEMPO 1703/1709 02015G25KT 9000 -SHRA SCT023 OVC090

Decode

Departure Runways

ID Width Length Bearing (true) Bearing (mag) Surface Threshold Offset Overrun Length
06 211 ft / 64 m 11,788 ft / 3,593 m 60.18° 62.34° Asphalt 587 ft / 179 m 0 ft / 0 m
13 151 ft / 46 m 5,850 ft / 1,783 m 134.93° 137.09° Asphalt 0 ft / 0 m 696 ft / 212 m
24 211 ft / 64 m 11,788 ft / 3,593 m 240.19° 242.35° Asphalt 0 ft / 0 m 331 ft / 101 m
31 151 ft / 46 m 5,850 ft / 1,783 m 314.93° 317.09° Asphalt 0 ft / 0 m 459 ft / 140 m

OTBD

Details ICAO OTBD (DOH)
Name DOHA INTL
Region Qatar
Timezone Asia/Qatar (UTC+3.0)
Stats Elevation 35 ft / 11 m (AMSL)
Location 25.261056° 51.564999°
Runways 1
Magnetic Variation 2.481° E

METAR

OTBD 161500Z 36011KT CAVOK 20/11 Q1019 NOSIG

Decode

TAF

TAF OTBD 161058Z 1612/1718 05007KT 8000 NSC BECMG 1616/1618 33008KT PROB30 TEMPO 1703/1718 -RA SCT040 BKN080

Decode

Destination Runways

ID Width Length Bearing (true) Bearing (mag) Surface Threshold Offset Overrun Length
16 151 ft / 46 m 15,065 ft / 4,592 m 158.20° 155.72° Asphalt 2,460 ft / 750 m 98 ft / 30 m
34 151 ft / 46 m 15,065 ft / 4,592 m 338.21° 335.73° Asphalt 0 ft / 0 m 460 ft / 140 m

Approach Navaids

Runway Type Ident Frequency Range Bearing (true) Bearing (mag) Slope Elevation
34 Localiser IBD 109.50 MHz 18 nm / 33 km 338.32° 335.84° - 38 ft / 12 m (AMSL)
34 Glidescope IBD 109.50 MHz 10 nm / 19 km 338.21° 335.73° 3.00° 35 ft / 11 m (AMSL)
34 DME IBD 109.50 MHz 18 nm / 33 km - - - 35 ft / 11 m (AMSL)

Popular Alternatives